Date Time,Air Temp,Sky Temp,Clarity,Light Level,Rain Sensor,Readings
2014-05-18 00:00:08,26.2,0.1,26.1,0.0,2.3,112
2014-05-18 00:05:08,25.6,0.0,25.6,0.0,2.3,112
2014-05-18 00:10:08,25.9,-0.2,26.0,0.0,2.3,112
2014-05-18 00:15:08,25.7,-0.3,26.0,0.0,2.4,112
2014-05-18 00:20:08,25.5,-0.5,26.0,0.0,2.3,112
2014-05-18 00:25:08,25.5,-0.4,25.9,0.0,2.3,112
2014-05-18 00:30:08,25.4,-0.3,25.7,0.0,2.3,112
2014-05-18 00:35:08,25.3,-0.4,25.7,0.0,2.3,112
2014-05-18 00:40:08,25.2,-0.6,25.9,0.0,2.3,113
2014-05-18 00:45:08,25.2,-0.8,25.9,0.0,2.3,111
2014-05-18 00:50:08,25.0,-0.8,25.8,0.0,2.3,112
2014-05-18 00:55:08,25.0,-1.2,26.2,0.0,2.3,112
2014-05-18 01:00:08,25.0,-1.0,26.0,0.0,2.3,111
2014-05-18 01:05:08,25.0,-0.3,25.3,0.0,2.3,112
2014-05-18 01:10:08,24.9,1.3,23.7,0.0,2.3,111
2014-05-18 01:15:08,25.0,3.3,21.7,0.0,2.3,112
2014-05-18 01:20:08,23.6,5.9,17.7,0.0,2.3,111
2014-05-18 01:25:08,21.4,5.0,16.3,0.0,2.3,112
2014-05-18 01:30:08,20.7,3.5,17.2,0.0,2.6,111
2014-05-18 01:35:08,21.3,0.0,21.3,0.0,2.4,112
2014-05-18 01:40:08,23.7,-1.3,25.0,0.0,2.3,111
2014-05-18 01:45:08,24.3,-1.8,26.1,0.0,2.3,111
2014-05-18 01:50:08,24.5,-1.4,25.9,0.0,2.3,111
2014-05-18 01:55:08,24.6,-1.4,26.0,0.0,2.3,112
2014-05-18 02:00:08,24.6,-1.4,26.0,0.0,2.3,112
2014-05-18 02:05:08,24.6,-1.8,26.4,0.0,2.3,111
2014-05-18 02:10:08,24.6,-1.5,26.1,0.0,2.3,112
2014-05-18 02:15:08,24.6,-1.7,26.3,0.0,2.3,112
2014-05-18 02:20:08,24.6,-1.5,26.0,0.0,2.3,111
2014-05-18 02:25:08,24.6,-1.2,25.8,0.0,2.3,112
2014-05-18 02:30:08,24.7,-1.1,25.8,0.0,2.3,111
2014-05-18 02:35:08,24.7,-1.4,26.1,0.1,2.3,112
2014-05-18 02:40:08,24.7,-1.1,25.8,0.1,2.3,111
2014-05-18 02:45:08,24.7,-1.7,26.4,0.1,2.3,112
2014-05-18 02:50:08,24.2,-1.9,26.1,0.1,2.3,112
2014-05-18 02:55:08,24.7,-1.9,26.6,0.1,2.3,111
2014-05-18 03:00:08,24.7,-1.8,26.5,0.1,2.3,112
2014-05-18 03:05:08,24.7,-1.8,26.5,0.1,2.3,111
2014-05-18 03:10:08,24.7,-1.9,26.7,0.1,2.3,112
2014-05-18 03:15:08,24.7,-2.0,26.7,0.1,2.3,112
2014-05-18 03:20:08,24.6,-2.0,26.6,0.1,2.3,111
2014-05-18 03:30:02,24.4,-2.0,26.5,0.2,2.3,63
2014-05-18 03:35:02,24.4,-2.0,26.4,0.2,2.3,111
2014-05-18 03:40:02,24.4,-1.8,26.2,0.2,2.3,112
2014-05-18 03:45:02,24.4,-2.1,26.4,0.2,2.3,112
2014-05-18 03:50:02,24.4,-1.9,26.3,0.3,2.3,112
2014-05-18 03:55:02,24.4,-1.9,26.2,0.3,2.3,112
2014-05-18 04:00:02,24.3,-2.2,26.5,0.4,2.3,112
2014-05-18 04:05:02,24.3,-2.0,26.3,0.5,2.3,111
2014-05-18 04:10:02,24.3,-2.0,26.3,0.7,2.3,111
2014-05-18 04:15:02,24.3,-2.1,26.3,1.0,2.3,111
2014-05-18 04:20:02,24.3,-2.1,26.4,1.5,2.3,112
2014-05-18 04:25:02,24.2,-2.2,26.4,2.5,2.3,111
2014-05-18 04:30:02,24.2,-2.2,26.4,4.1,2.3,112
2014-05-18 04:35:02,24.1,-2.4,26.6,6.6,2.3,112
2014-05-18 04:40:02,24.1,-2.5,26.5,10.3,2.3,111
2014-05-18 04:45:02,24.0,-2.5,26.5,14.9,2.3,112
2014-05-18 04:50:02,24.0,-2.6,26.6,19.6,2.3,111
2014-05-18 04:55:02,24.0,-2.4,26.5,23.6,2.3,112
2014-05-18 05:00:02,24.0,-2.4,26.5,26.5,2.3,112
2014-05-18 05:05:02,24.0,-2.6,26.6,28.5,2.3,112
2014-05-18 05:10:02,24.0,-2.6,26.6,29.7,2.3,112
2014-05-18 05:15:02,24.0,-2.8,26.8,30.5,2.3,112
2014-05-18 05:20:02,24.0,-2.8,26.8,31.0,2.3,111
2014-05-18 05:25:02,24.1,-3.1,27.1,31.3,2.3,112
2014-05-18 05:30:02,24.2,-2.9,27.0,31.5,2.3,112
2014-05-18 05:35:02,24.3,-2.8,27.1,31.7,2.3,112
2014-05-18 05:40:02,24.5,-2.8,27.3,31.8,2.3,112
2014-05-18 05:45:02,24.7,-2.9,27.5,31.9,2.3,111
2014-05-18 05:50:02,24.8,-2.5,27.4,32.0,2.3,112
2014-05-18 05:55:02,25.1,-2.4,27.5,32.0,2.3,112
2014-05-18 06:00:02,25.4,-2.5,27.9,32.1,2.3,112
2014-05-18 06:05:11,25.7,-2.6,28.3,32.1,2.3,74
2014-05-18 06:10:11,25.9,-2.7,28.6,32.1,2.3,112
2014-05-18 06:15:11,26.2,-2.8,29.0,32.2,2.3,111
2014-05-18 06:20:11,26.4,-3.0,29.4,32.2,2.3,112
2014-05-18 06:25:11,26.6,-3.1,29.7,32.2,2.2,112
2014-05-18 06:30:11,26.9,-3.2,30.1,32.2,2.3,111
2014-05-18 06:35:11,27.1,-3.3,30.3,32.2,2.3,112
2014-05-18 06:40:11,27.2,-3.4,30.6,32.2,2.3,112
2014-05-18 06:45:11,27.4,-3.3,30.6,32.3,2.5,112
2014-05-18 06:50:11,27.6,-2.9,30.4,32.3,2.5,112
2014-05-18 06:55:11,27.8,-3.5,31.3,32.3,2.3,112
2014-05-18 07:00:11,27.9,-3.5,31.3,32.3,2.3,112
2014-05-18 07:05:11,28.0,-3.4,31.4,32.3,2.3,111
2014-05-18 07:10:11,28.1,-3.7,31.8,32.3,2.3,112
2014-05-18 07:15:11,28.1,-3.8,31.9,32.3,2.3,112
2014-05-18 07:20:11,28.1,-3.5,31.7,32.3,2.3,112
2014-05-18 07:25:11,28.2,-3.7,31.9,32.3,2.3,112
2014-05-18 07:30:11,28.3,-3.7,32.0,32.3,2.3,111
2014-05-18 07:35:11,28.5,-3.6,32.1,32.3,2.3,112
2014-05-18 07:40:11,28.1,-3.5,31.6,32.3,2.3,112
2014-05-18 07:45:11,28.9,-3.9,32.8,32.3,2.3,112
2014-05-18 07:50:11,29.0,-3.4,32.4,32.3,2.3,112
2014-05-18 07:55:11,29.0,-3.6,32.6,32.3,2.3,112
2014-05-18 08:00:11,28.7,-3.4,32.1,32.3,2.3,112
2014-05-18 08:05:12,28.4,-3.0,31.4,32.3,2.3,111
2014-05-18 08:10:12,28.2,-3.0,31.3,32.3,2.3,112
2014-05-18 08:15:12,28.1,-2.7,30.8,32.3,2.3,112
2014-05-18 08:20:12,28.1,-2.9,31.0,32.4,2.3,111
2014-05-18 08:25:12,28.0,-3.2,31.2,32.4,2.3,112
2014-05-18 08:30:12,27.9,-2.9,30.8,32.4,2.3,112
2014-05-18 08:35:12,27.9,-2.9,30.7,32.4,2.3,111
2014-05-18 08:40:12,27.6,-3.4,31.0,32.4,2.3,112
2014-05-18 08:45:12,27.6,-2.6,30.2,32.4,2.3,112
2014-05-18 08:50:12,27.8,-2.3,30.1,32.4,2.3,111
2014-05-18 08:55:12,28.0,-2.1,30.1,32.4,2.3,112
2014-05-18 09:00:12,28.3,-2.2,30.5,32.4,2.3,111
2014-05-18 09:05:12,28.4,-2.1,30.5,32.4,2.3,112
2014-05-18 09:10:12,28.5,-2.0,30.5,32.4,2.3,112
2014-05-18 09:15:12,28.4,-1.6,30.0,32.4,2.3,111
2014-05-18 09:20:12,28.7,-1.1,29.8,32.5,2.3,113
2014-05-18 09:25:12,29.5,-0.5,30.0,32.5,2.3,112
2014-05-18 09:30:12,30.3,-0.3,30.6,32.5,2.3,111
2014-05-18 09:35:12,31.0,-0.1,31.1,32.5,2.3,112
2014-05-18 09:40:12,31.5,-0.1,31.6,32.5,2.3,112
2014-05-18 09:45:12,32.0,-0.2,32.1,32.5,2.3,111
2014-05-18 09:50:12,32.2,-0.7,32.9,32.5,2.3,112
2014-05-18 09:55:12,31.6,-0.4,32.0,32.5,2.3,112
2014-05-18 10:00:12,31.4,0.3,31.1,32.5,2.3,111
2014-05-18 10:05:12,31.8,0.3,31.5,32.5,2.3,112
2014-05-18 10:10:12,31.8,0.3,31.5,32.5,2.3,111
2014-05-18 10:15:12,31.9,0.9,31.0,32.5,2.3,112
2014-05-18 10:20:12,32.1,0.3,31.8,32.5,2.3,111
2014-05-18 10:25:12,32.0,1.1,30.9,32.6,2.3,111
2014-05-18 10:30:12,32.3,0.7,31.7,32.6,2.0,112
2014-05-18 10:35:12,32.4,1.3,31.2,32.6,1.6,111
2014-05-18 10:40:12,32.6,1.5,31.1,32.6,1.8,111
2014-05-18 10:45:12,33.0,2.1,30.8,32.6,1.4,111
2014-05-18 10:50:12,33.4,1.2,32.2,32.6,1.4,111
2014-05-18 10:55:12,33.0,2.0,31.0,32.6,1.6,111
2014-05-18 11:00:12,33.0,1.5,31.5,32.6,1.6,111
2014-05-18 11:05:12,32.9,2.1,30.9,32.6,1.6,111
2014-05-18 11:10:12,32.9,1.3,31.6,32.6,1.5,111
2014-05-18 11:15:12,32.6,2.3,30.4,32.6,1.4,111
2014-05-18 11:20:12,33.0,2.6,30.5,32.6,1.5,112
2014-05-18 11:25:12,33.4,2.5,30.9,32.6,1.3,111
2014-05-18 11:30:12,33.5,2.2,31.2,32.6,1.2,111
2014-05-18 11:35:12,33.4,3.0,30.4,32.6,1.2,111
2014-05-18 11:40:12,33.4,2.8,30.6,32.6,1.2,112
2014-05-18 11:45:12,33.7,3.2,30.5,32.6,1.2,111
2014-05-18 11:50:12,33.7,2.7,31.0,32.6,1.3,111
2014-05-18 11:55:12,33.8,2.9,30.9,32.6,1.3,112
2014-05-18 12:00:12,33.9,3.0,30.9,32.6,1.4,111
2014-05-18 12:05:12,33.9,3.1,30.8,32.6,1.4,111
2014-05-18 12:10:12,33.9,3.1,30.8,32.6,1.4,112
2014-05-18 12:15:12,33.9,3.3,30.6,32.6,1.4,111
2014-05-18 12:20:12,33.9,3.5,30.4,32.6,1.4,112
2014-05-18 12:25:12,33.2,3.6,29.7,32.6,1.4,111
2014-05-18 12:30:12,33.4,4.0,29.3,32.6,1.5,111
2014-05-18 12:35:12,34.3,3.9,30.4,32.6,1.6,112
2014-05-18 12:40:12,34.3,3.7,30.7,32.6,1.6,111
2014-05-18 12:45:12,34.4,4.1,30.3,32.6,1.7,112
2014-05-18 12:50:12,34.7,5.2,29.5,32.6,1.7,111
2014-05-18 12:55:12,35.2,3.6,31.5,32.6,1.8,112
2014-05-18 13:00:12,35.0,5.6,29.5,32.6,1.9,111
2014-05-18 13:05:12,35.6,4.6,31.0,32.6,2.0,112
2014-05-18 13:10:12,35.3,4.1,31.2,32.6,2.0,111
2014-05-18 13:15:12,35.1,5.3,29.8,32.6,1.9,112
2014-05-18 13:20:12,35.4,4.6,30.7,32.6,2.0,111
2014-05-18 13:25:12,35.1,4.6,30.4,32.6,2.0,112
2014-05-18 13:30:12,35.2,5.1,30.1,32.6,2.0,111
2014-05-18 13:35:12,35.4,6.0,29.4,32.6,2.0,112
2014-05-18 13:40:12,35.6,4.4,31.3,32.6,2.0,111
2014-05-18 13:45:12,35.2,5.0,30.3,32.6,2.1,112
2014-05-18 13:50:12,35.1,5.4,29.7,32.6,2.0,112
2014-05-18 13:55:12,35.5,5.8,29.7,32.6,2.0,111
2014-05-18 14:00:12,35.5,4.8,30.7,32.6,2.0,112
2014-05-18 14:05:12,35.2,5.1,30.1,32.6,2.0,111
2014-05-18 14:10:12,35.5,6.0,29.5,32.6,2.1,111
2014-05-18 14:15:12,35.5,4.5,31.1,32.6,2.0,112
2014-05-18 14:20:12,35.2,7.0,28.3,32.6,2.1,111
2014-05-18 14:25:12,36.4,6.7,29.7,32.6,2.4,111
2014-05-18 14:30:12,37.0,7.1,29.8,32.6,2.5,111
2014-05-18 14:35:12,37.5,7.0,30.6,32.6,2.7,112
2014-05-18 14:40:12,37.3,5.4,31.9,32.6,2.7,111
2014-05-18 14:45:12,36.9,7.5,29.4,32.6,2.6,112
2014-05-18 14:50:12,37.0,5.5,31.5,32.6,2.7,111
2014-05-18 14:55:12,35.5,5.8,29.8,32.6,2.4,112
2014-05-18 15:00:12,36.1,6.7,29.4,32.6,2.4,112
2014-05-18 15:05:12,36.1,7.0,29.1,32.6,2.5,111
2014-05-18 15:10:12,36.5,5.0,31.5,32.6,2.5,112
2014-05-18 15:15:12,36.0,6.9,29.1,32.6,2.4,111
2014-05-18 15:20:12,36.3,6.5,29.8,32.6,2.4,112
2014-05-18 15:25:12,36.5,6.5,30.0,32.6,2.5,111
2014-05-18 15:30:12,36.8,7.0,29.8,32.6,2.6,112
2014-05-18 15:35:12,36.8,5.8,31.1,32.6,2.7,111
2014-05-18 15:40:12,36.2,5.4,30.8,32.6,2.4,112
2014-05-18 15:45:12,35.8,5.5,30.3,32.6,2.4,111
2014-05-18 15:50:12,35.5,5.9,29.6,32.6,2.4,111
2014-05-18 15:55:12,35.5,4.8,30.7,32.6,2.4,112
2014-05-18 16:00:12,35.4,5.9,29.5,32.6,2.4,112
2014-05-18 16:05:12,35.5,6.0,29.5,32.6,2.4,111
2014-05-18 16:10:12,35.5,4.5,31.0,32.6,2.4,112
2014-05-18 16:15:12,34.8,3.9,30.9,32.6,2.1,111
2014-05-18 16:20:12,34.3,3.8,30.6,32.6,2.0,112
2014-05-18 16:25:12,34.1,4.9,29.2,32.6,1.9,111
2014-05-18 16:30:12,34.5,5.1,29.4,32.6,2.0,112
2014-05-18 16:35:12,34.8,5.1,29.7,32.6,2.1,112
2014-05-18 16:40:12,35.2,6.3,28.8,32.6,2.1,112
2014-05-18 16:45:12,35.7,5.3,30.4,32.6,2.4,111
2014-05-18 16:50:12,35.5,4.1,31.4,32.6,2.3,112
2014-05-18 16:55:12,35.1,4.1,31.0,32.6,2.2,112
2014-05-18 17:00:12,34.6,4.1,30.5,32.6,2.0,111
2014-05-18 17:05:12,34.5,3.4,31.1,32.6,2.0,111
2014-05-18 17:10:12,34.2,4.8,29.4,32.6,2.0,112
2014-05-18 17:15:12,34.4,4.1,30.4,32.6,2.0,112
2014-05-18 17:20:12,34.4,4.0,30.4,32.6,2.0,111
2014-05-18 17:25:12,34.6,3.8,30.8,32.6,2.0,111
2014-05-18 17:30:12,34.3,3.5,30.7,32.6,2.0,112
2014-05-18 17:35:12,34.0,4.0,30.0,32.6,1.9,111
2014-05-18 17:40:12,34.2,3.3,30.8,32.6,1.9,111
2014-05-18 17:45:12,34.3,4.0,30.3,32.6,1.9,111
2014-05-18 17:50:12,34.4,3.4,31.0,32.6,2.0,112
2014-05-18 17:55:12,34.4,3.0,31.4,32.6,2.0,111
2014-05-18 18:00:12,34.2,2.9,31.3,32.6,1.9,112
2014-05-18 18:05:12,34.2,2.9,31.2,32.6,1.9,111
2014-05-18 18:10:12,33.9,2.1,31.8,32.6,1.8,111
2014-05-18 18:15:12,33.5,1.7,31.8,32.6,1.8,111
2014-05-18 18:20:12,33.1,1.6,31.5,32.6,1.7,111
2014-05-18 18:25:12,32.9,1.7,31.2,32.6,1.6,112
2014-05-18 18:30:12,32.9,2.4,30.6,32.6,1.5,111
2014-05-18 18:35:12,33.1,1.8,31.3,32.6,1.6,111
2014-05-18 18:40:12,32.5,1.9,30.6,32.6,1.6,111
2014-05-18 18:45:12,33.1,1.2,31.9,32.6,1.5,112
2014-05-18 18:50:12,32.9,2.2,30.7,32.6,1.5,111
2014-05-18 18:55:12,33.2,1.7,31.5,32.6,1.5,111
2014-05-18 19:00:12,33.2,1.6,31.6,32.6,1.5,111
2014-05-18 19:05:12,33.2,1.8,31.4,32.6,1.5,111
2014-05-18 19:10:12,33.2,0.8,32.4,32.6,1.5,112
2014-05-18 19:15:12,32.7,0.6,32.1,32.5,1.4,111
2014-05-18 19:20:12,32.6,1.5,31.1,32.5,1.2,111
2014-05-18 19:25:12,32.8,0.6,32.1,32.5,1.3,111
2014-05-18 19:30:12,32.6,0.7,31.9,32.5,1.2,111
2014-05-18 19:35:12,32.4,0.5,32.0,32.5,1.2,111
2014-05-18 19:40:12,32.2,-0.0,32.2,32.5,1.4,112
2014-05-18 19:45:12,31.8,-0.3,32.1,32.4,1.5,112
2014-05-18 19:50:12,31.3,-0.8,32.1,32.4,1.6,112
2014-05-18 19:55:12,30.8,-0.9,31.7,32.4,2.3,112
2014-05-18 20:00:12,30.4,-0.8,31.2,32.3,2.3,112
2014-05-18 20:05:12,30.0,-1.4,31.4,32.3,2.3,111
2014-05-18 20:10:12,29.5,-1.6,31.1,32.2,2.3,112
2014-05-18 20:15:12,29.1,-1.5,30.6,32.1,2.3,111
2014-05-18 20:20:12,28.2,-1.7,29.9,32.0,2.3,112
2014-05-18 20:25:12,28.3,-1.8,30.1,31.8,2.3,112
2014-05-18 20:30:12,27.8,-2.1,29.9,31.7,2.3,111
2014-05-18 20:35:12,27.4,-2.0,29.4,31.5,2.3,112
2014-05-18 20:40:12,27.1,-2.1,29.2,31.2,2.3,112
2014-05-18 20:45:12,26.8,-2.4,29.2,30.9,2.3,111
2014-05-18 20:50:12,26.5,-2.1,28.6,30.3,2.3,112
2014-05-18 20:55:12,26.3,-2.2,28.6,29.6,2.4,112
2014-05-18 21:00:12,26.2,-2.3,28.5,28.6,2.7,112
2014-05-18 21:05:12,26.0,-2.5,28.5,27.0,2.5,111
2014-05-18 21:10:12,25.7,-2.7,28.4,24.7,2.3,112
2014-05-18 21:15:12,25.6,-2.6,28.2,21.2,2.3,112
2014-05-18 21:20:12,25.4,-2.6,28.0,16.8,2.2,111
2014-05-18 21:25:12,25.3,-2.6,28.0,12.1,2.3,112
2014-05-18 21:30:12,25.3,-2.3,27.6,8.1,2.4,112
2014-05-18 21:35:12,25.3,-2.3,27.5,5.0,2.4,112
2014-05-18 21:40:12,25.2,-2.1,27.3,3.0,2.3,111
2014-05-18 21:45:12,25.2,-2.0,27.2,1.8,2.4,112
2014-05-18 21:50:12,25.3,-2.1,27.4,1.0,2.4,111
2014-05-18 21:55:12,25.4,-2.1,27.5,0.6,2.4,112
2014-05-18 22:00:12,25.4,-2.1,27.5,0.3,2.3,111
2014-05-18 22:05:12,25.4,-2.2,27.6,0.2,2.4,112
2014-05-18 22:10:12,25.4,-2.1,27.5,0.1,2.3,112
2014-05-18 22:15:12,25.3,-2.1,27.5,0.1,2.3,111
2014-05-18 22:20:12,25.3,-2.0,27.3,0.0,2.3,112
2014-05-18 22:25:12,25.3,-2.2,27.5,0.0,2.3,112
2014-05-18 22:30:12,25.3,-2.0,27.3,0.0,2.3,111
2014-05-18 22:35:12,25.3,-1.9,27.2,0.0,2.3,112
2014-05-18 22:40:12,25.3,-1.9,27.2,0.0,2.3,111
2014-05-18 22:45:12,24.7,-2.0,26.7,0.0,2.3,112
2014-05-18 22:50:12,25.1,-0.9,26.1,0.0,2.3,112
2014-05-18 22:55:12,25.2,0.2,25.0,0.0,2.3,111
2014-05-18 23:00:12,25.3,0.8,24.5,0.0,2.3,111
2014-05-18 23:05:12,25.4,4.4,21.0,0.0,2.3,112
2014-05-18 23:10:13,23.7,4.9,18.8,0.0,2.3,111
2014-05-18 23:15:13,21.7,4.3,17.4,0.0,2.3,112
2014-05-18 23:20:13,21.1,3.3,17.8,0.0,2.3,111
2014-05-18 23:25:13,21.3,1.2,20.1,0.0,2.3,112
2014-05-18 23:30:13,24.0,-0.4,24.4,0.0,2.3,112
2014-05-18 23:35:13,25.0,-1.0,25.9,0.0,2.3,112
2014-05-18 23:40:13,25.3,-1.1,26.4,0.0,2.3,111
2014-05-18 23:45:13,25.4,-1.4,26.9,0.0,2.3,111
2014-05-18 23:50:13,25.6,-1.3,26.9,0.0,2.3,112
2014-05-18 23:55:13,25.6,-1.2,26.8,0.0,2.3,111
